Showing default

MKA-FKI 1, 38711

Orbit data source: Space-Track

MKA-FKI 1, 38711 is a Commonwealth of Independent States-origin payload satellite in SSO that was launched on Sun, 22 Jul 2012 UTC via a SOYUZ-FG launch vehicle from the Tyuratam Missile And Space Complex (TTMTR). Payload-class satellites include a variety of spacecraft equipped with specific instruments for various scientific and technological missions. These include communications satellites like Starlink; space stations such as the ISS; scientific satellites like the Hubble; Earth observation satellites from companies like Planet Labs, Umbra, and HawkEye 360; GPS; miniature CubeSats for education and research; and military/defense satellites.

Loading next visibility...
Identifier
38711, 2012-039E
Orbit
SSO
Last TLE update
21 hours ago
Origin
Manufacturer
Lavochkin
Mission
Operational Civil Science
Bus & Motor
KARAT, Unknown motor
Mass
110 kg wet, 110 kg dry
Launch date (UTC)
2012-07-22 (13 years ago)
Launch vehicle
SOYUZ-FG
Launch site
Tyuratam Missile And Space Complex (TTMTR)
Object type
Payload
Rocket body
Debris
Shape & HBR
Box + 3 Pan, 1 m
Radar Cross Section
1.500 m², Large (>1 m²)

Expand to show TLE details & history

TLE from 21 hours ago
0 MKA-FKI 1
1 38711U 12039E   25186.26831644  .00000110  00000-0  66207-4 0  9998
2 38711  98.9497 291.0128 0012572  89.9414 270.3206 14.25241916673420
Epoch: 2025-07-05T06:26Z
TLE epoch observation values (Epoch: 2025-07-05T06:26:22.54Z)
Latitude
0.00006°
Longitude
-89.08992°
Altitude
810.554 km
Speed
7.448 km/s
True Right ascension
19h 24m 03s
True Declination
0° 00' 00"
Sunlit
Object was in full shadow at epoch
Visualization orbit readout
Latitude
-60.83493°
Longitude
75.51519°
Altitude
839.225 km
Speed
7.428 km/s
Apparent Right ascension
04h 50m 01s
Apparent Declination
-52° 30' 05"
Sunlit
Object is in daylight
Visualization observer readout
Local Sidereal Time
15:44:23
Azimuth
216.333° SW
Elevation
-73.129°
Doppler factor
1
Orbital elements
Apogee altitude
813.873 km
Perigee altitude
795.812 km
Semi-major axis
7,182.98 km
Eccentricity
0.00126
Inclination
98.9497°
RAAN
291.0128°
Arg. of periapsis
89.9414°
True anomaly
Unknown
Mean anomaly
270.3206°
Eccentric anomaly
Unknown
Mean motion
3.56522 °/min
Orbital period
100.98 mins
BSTAR
0.000066207
Loading maneuver chart data...
Loading SW <> Apogee altitude chart data...
Loading historical data...
Loading historical data...
Loading historical data...
Loading historical data...
Loading historical data...
Loading historical data...
Loading historical data...

MKA-FKI 1 Visibility forecast

Observer location: undefined°, undefined°

Span
Click to sort rows by Start time (UTC) header in descending order
Start Az.
Max El. time (UTC)
Max El. Az.
Max El.
End time (UTC)
End Az.
9 mins2025-07-06 06:09:19.495Z129.83° SE2025-07-06 06:13:19.495Z78.853° E28.714°2025-07-06 06:18:19.495Z5.439° NNE
7 mins2025-07-06 07:50:19.495Z213.635° SW2025-07-06 07:53:19.495Z258.683° W25.592°2025-07-06 07:57:19.495Z318.02° NNW
9 mins2025-07-06 20:05:19.495Z9.233° NNE2025-07-06 20:09:19.495Z289.385° WNW44.144°2025-07-06 20:14:19.495Z201.586° SSW
|